Time,TemperatureF,DewpointF,PressureIn,WindDirection,WindDirectionDegrees,WindSpeedMPH,WindSpeedGustMPH,Humidity,HourlyPrecipIn,Conditions,Clouds,dailyrainin,SolarRadiationWatts/m^2,SoftwareType,DateUTC
2013-01-09 00:02:00,59.0,58.0,-100.00,East,93,6.0,11.0,98,0.00,,,1.04,0.000000,,2013-01-09 06:02:00,
2013-01-09 00:22:00,59.0,58.0,-100.00,East,84,4.0,9.0,98,0.00,,,1.04,0.000000,,2013-01-09 06:22:00,
2013-01-09 00:32:00,59.0,58.0,-100.00,East,84,4.0,9.0,98,0.00,,,1.04,0.000000,,2013-01-09 06:32:00,
2013-01-09 00:42:00,59.0,58.0,-100.00,East,84,4.0,9.0,98,0.00,,,1.04,0.000000,,2013-01-09 06:42:00,
2013-01-09 00:52:00,59.0,58.0,-100.00,East,84,4.0,9.0,98,0.00,,,1.04,0.000000,,2013-01-09 06:52:00,
2013-01-09 01:02:00,59.0,58.0,-100.00,East,84,4.0,9.0,98,0.00,,,1.04,0.000000,,2013-01-09 07:02:00,
2013-01-09 01:32:00,60.0,60.0,-100.00,East,84,4.0,7.0,99,0.01,,,1.05,0.000000,,2013-01-09 07:32:00,
2013-01-09 01:42:00,60.0,60.0,-100.00,East,84,4.0,7.0,99,0.01,,,1.05,0.000000,,2013-01-09 07:42:00,
2013-01-09 01:52:00,60.0,60.0,-100.00,East,84,4.0,7.0,99,0.01,,,1.05,0.000000,,2013-01-09 07:52:00,
2013-01-09 02:02:00,60.0,60.0,-100.00,East,84,4.0,7.0,99,0.01,,,1.05,0.000000,,2013-01-09 08:02:00,
2013-01-09 02:22:00,61.0,60.0,-100.00,East,92,4.0,9.0,97,0.00,,,1.05,0.000000,,2013-01-09 08:22:00,
2013-01-09 02:32:00,61.0,60.0,-100.00,East,92,4.0,9.0,97,0.00,,,1.05,0.000000,,2013-01-09 08:32:00,
2013-01-09 02:43:00,61.0,60.0,-100.00,East,92,4.0,9.0,97,0.00,,,1.05,0.000000,,2013-01-09 08:43:00,
2013-01-09 02:53:00,61.0,60.0,-100.00,East,92,4.0,9.0,97,0.00,,,1.05,0.000000,,2013-01-09 08:53:00,
2013-01-09 03:02:00,61.0,60.0,-100.00,East,92,4.0,9.0,97,0.00,,,1.05,0.000000,,2013-01-09 09:02:00,
2013-01-09 03:22:00,61.0,60.0,-100.00,ENE,76,3.0,7.0,97,0.00,,,1.04,0.000000,,2013-01-09 09:22:00,
2013-01-09 03:32:00,61.0,60.0,-100.00,ENE,76,3.0,7.0,97,0.00,,,1.04,0.000000,,2013-01-09 09:32:00,
2013-01-09 03:42:00,61.0,60.0,-100.00,ENE,76,3.0,7.0,97,0.00,,,1.04,0.000000,,2013-01-09 09:42:00,
2013-01-09 03:53:00,61.0,60.0,-100.00,ENE,76,3.0,7.0,97,0.00,,,1.04,0.000000,,2013-01-09 09:53:00,
2013-01-09 04:02:00,61.0,60.0,-100.00,ENE,76,3.0,7.0,97,0.00,,,1.04,0.000000,,2013-01-09 10:02:00,
2013-01-09 04:32:00,61.0,60.0,-100.00,ENE,67,5.0,9.0,97,0.06,,,1.09,0.000000,,2013-01-09 10:32:00,
2013-01-09 04:42:00,61.0,60.0,-100.00,ENE,67,5.0,9.0,97,0.06,,,1.09,0.000000,,2013-01-09 10:42:00,
2013-01-09 04:52:00,61.0,60.0,-100.00,ENE,67,5.0,9.0,97,0.06,,,1.09,0.000000,,2013-01-09 10:52:00,
2013-01-09 05:02:00,61.0,60.0,-100.00,ENE,67,5.0,9.0,97,0.06,,,1.09,0.000000,,2013-01-09 11:02:00,
2013-01-09 05:03:00,61.0,60.0,-100.00,ESE,107,7.0,11.0,97,0.09,,,1.18,0.000000,,2013-01-09 11:03:00,
2013-01-09 05:33:00,61.0,60.0,-100.00,ESE,107,7.0,11.0,97,0.09,,,1.18,0.000000,,2013-01-09 11:33:00,
2013-01-09 05:42:00,61.0,60.0,-100.00,ESE,107,7.0,11.0,97,0.09,,,1.18,0.000000,,2013-01-09 11:42:00,
2013-01-09 05:53:00,61.0,60.0,-100.00,ESE,107,7.0,11.0,97,0.09,,,1.18,0.000000,,2013-01-09 11:53:00,
2013-01-09 06:23:00,61.0,60.0,-100.00,ESE,105,7.0,12.0,97,0.05,,,1.23,0.000000,,2013-01-09 12:23:00,
2013-01-09 06:33:00,61.0,60.0,-100.00,ESE,105,7.0,12.0,97,0.05,,,1.23,0.000000,,2013-01-09 12:33:00,
2013-01-09 06:43:00,61.0,60.0,-100.00,ESE,105,7.0,12.0,97,0.05,,,1.23,0.000000,,2013-01-09 12:43:00,
2013-01-09 06:53:00,61.0,60.0,-100.00,ESE,105,7.0,12.0,97,0.05,,,1.23,0.000000,,2013-01-09 12:53:00,
2013-01-09 07:02:00,61.0,60.0,-100.00,ESE,105,7.0,12.0,97,0.05,,,1.23,0.000000,,2013-01-09 13:02:00,
2013-01-09 07:03:00,62.0,61.0,-100.00,East,100,6.0,13.0,95,0.00,,,1.23,0.000000,,2013-01-09 13:03:00,
2013-01-09 07:23:00,62.0,61.0,-100.00,East,100,6.0,13.0,95,0.00,,,1.23,0.000000,,2013-01-09 13:23:00,
2013-01-09 07:33:00,62.0,61.0,-100.00,East,100,6.0,13.0,95,0.00,,,1.23,0.000000,,2013-01-09 13:33:00,
2013-01-09 07:43:00,62.0,61.0,-100.00,East,100,6.0,13.0,95,0.00,,,1.23,0.000000,,2013-01-09 13:43:00,
2013-01-09 07:53:00,62.0,61.0,-100.00,East,100,6.0,13.0,95,0.00,,,1.23,0.000000,,2013-01-09 13:53:00,
2013-01-09 08:03:00,62.0,61.0,-100.00,East,84,5.0,12.0,95,0.00,,,1.23,2.000000,,2013-01-09 14:03:00,
2013-01-09 08:23:00,62.0,61.0,-100.00,East,84,5.0,12.0,95,0.00,,,1.23,2.000000,,2013-01-09 14:23:00,
2013-01-09 08:33:00,62.0,61.0,-100.00,East,84,5.0,12.0,95,0.00,,,1.23,2.000000,,2013-01-09 14:33:00,
2013-01-09 08:43:00,62.0,61.0,-100.00,East,84,5.0,12.0,95,0.00,,,1.23,2.000000,,2013-01-09 14:43:00,
2013-01-09 08:53:00,62.0,61.0,-100.00,East,84,5.0,12.0,95,0.00,,,1.23,2.000000,,2013-01-09 14:53:00,
2013-01-09 09:03:00,62.0,60.0,-100.00,East,81,7.0,12.0,94,0.00,,,1.22,15.000000,,2013-01-09 15:03:00,
2013-01-09 09:23:00,62.0,60.0,-100.00,East,81,7.0,12.0,94,0.00,,,1.22,15.000000,,2013-01-09 15:23:00,
2013-01-09 09:33:00,62.0,60.0,-100.00,East,81,7.0,12.0,94,0.00,,,1.22,15.000000,,2013-01-09 15:33:00,
2013-01-09 09:43:00,62.0,60.0,-100.00,East,81,7.0,12.0,94,0.00,,,1.22,15.000000,,2013-01-09 15:43:00,
2013-01-09 09:53:00,62.0,60.0,-100.00,East,81,7.0,12.0,94,0.00,,,1.22,15.000000,,2013-01-09 15:53:00,
2013-01-09 10:23:00,62.0,60.0,-100.00,East,100,7.0,15.0,94,0.01,,,1.09,30.000000,,2013-01-09 16:23:00,
2013-01-09 10:34:00,62.0,60.0,-100.00,East,100,7.0,15.0,94,0.01,,,1.09,30.000000,,2013-01-09 16:34:00,
2013-01-09 10:43:00,62.0,60.0,-100.00,East,100,7.0,15.0,94,0.01,,,1.09,30.000000,,2013-01-09 16:43:00,
2013-01-09 10:53:00,62.0,60.0,-100.00,East,100,7.0,15.0,94,0.01,,,1.09,30.000000,,2013-01-09 16:53:00,
2013-01-09 11:02:00,62.0,60.0,-100.00,East,100,7.0,15.0,94,0.01,,,1.09,30.000000,,2013-01-09 17:02:00,
2013-01-09 11:03:00,63.0,62.0,-100.00,ENE,77,7.0,12.0,95,0.00,,,1.04,59.000000,,2013-01-09 17:03:00,
2013-01-09 11:23:00,63.0,62.0,-100.00,ENE,77,7.0,12.0,95,0.00,,,1.04,59.000000,,2013-01-09 17:23:00,
2013-01-09 11:33:00,63.0,62.0,-100.00,ENE,77,7.0,12.0,95,0.00,,,1.04,59.000000,,2013-01-09 17:33:00,
2013-01-09 11:43:00,63.0,62.0,-100.00,ENE,77,7.0,12.0,95,0.00,,,1.04,59.000000,,2013-01-09 17:43:00,
2013-01-09 11:53:00,63.0,62.0,-100.00,ENE,77,7.0,12.0,95,0.00,,,1.04,59.000000,,2013-01-09 17:53:00,
2013-01-09 12:03:00,64.0,62.0,-100.00,East,97,7.0,14.0,94,0.00,,,1.03,50.000000,,2013-01-09 18:03:00,
2013-01-09 12:24:00,64.0,62.0,-100.00,East,97,7.0,14.0,94,0.00,,,1.03,50.000000,,2013-01-09 18:24:00,
2013-01-09 12:33:00,64.0,62.0,-100.00,East,97,7.0,14.0,94,0.00,,,1.03,50.000000,,2013-01-09 18:33:00,
2013-01-09 12:43:00,64.0,62.0,-100.00,East,97,7.0,14.0,94,0.00,,,1.03,50.000000,,2013-01-09 18:43:00,
2013-01-09 12:53:00,64.0,62.0,-100.00,East,97,7.0,14.0,94,0.00,,,1.03,50.000000,,2013-01-09 18:53:00,
2013-01-09 14:03:00,64.0,63.0,-100.00,East,101,2.0,7.0,96,-99.99,,,0.73,41.000000,,2013-01-09 20:03:00,
2013-01-09 14:33:00,64.0,63.0,-100.00,East,101,2.0,7.0,96,-99.99,,,0.73,41.000000,,2013-01-09 20:33:00,
2013-01-09 14:43:00,64.0,63.0,-100.00,East,101,2.0,7.0,96,-99.99,,,0.73,41.000000,,2013-01-09 20:43:00,
2013-01-09 14:53:00,64.0,63.0,-100.00,East,101,2.0,7.0,96,-99.99,,,0.73,41.000000,,2013-01-09 20:53:00,
2013-01-09 15:03:00,64.0,63.0,-100.00,East,97,3.0,6.0,97,0.11,,,0.83,24.000000,,2013-01-09 21:03:00,
2013-01-09 15:33:00,64.0,63.0,-100.00,East,97,3.0,6.0,97,0.11,,,0.83,24.000000,,2013-01-09 21:33:00,
2013-01-09 15:43:00,64.0,63.0,-100.00,East,97,3.0,6.0,97,0.11,,,0.83,24.000000,,2013-01-09 21:43:00,
2013-01-09 15:53:00,64.0,63.0,-100.00,East,97,3.0,6.0,97,0.11,,,0.83,24.000000,,2013-01-09 21:53:00,
2013-01-09 16:23:00,64.0,63.0,-100.00,East,92,9.0,16.0,98,0.30,,,1.11,5.000000,,2013-01-09 22:23:00,
2013-01-09 16:33:00,64.0,63.0,-100.00,East,92,9.0,16.0,98,0.30,,,1.11,5.000000,,2013-01-09 22:33:00,
2013-01-09 16:43:00,64.0,63.0,-100.00,East,92,9.0,16.0,98,0.30,,,1.11,5.000000,,2013-01-09 22:43:00,
2013-01-09 16:52:00,64.0,63.0,-100.00,East,92,9.0,16.0,98,0.30,,,1.11,5.000000,,2013-01-09 22:52:00,
2013-01-09 17:02:00,64.0,63.0,-100.00,East,92,9.0,16.0,98,0.30,,,1.11,5.000000,,2013-01-09 23:02:00,
2013-01-09 17:03:00,64.0,63.0,-100.00,East,85,15.0,27.0,96,0.22,,,0.99,2.000000,,2013-01-09 23:03:00,
2013-01-09 17:33:00,64.0,63.0,-100.00,East,85,15.0,27.0,96,0.22,,,0.99,2.000000,,2013-01-09 23:33:00,
2013-01-09 17:43:00,64.0,63.0,-100.00,East,85,15.0,27.0,96,0.22,,,0.99,2.000000,,2013-01-09 23:43:00,
2013-01-09 17:53:00,64.0,63.0,-100.00,East,85,15.0,27.0,96,0.22,,,0.99,2.000000,,2013-01-09 23:53:00,
2013-01-09 18:33:00,64.0,62.0,-100.00,East,100,6.0,18.0,93,0.00,,,-99.99,1.000000,,2013-01-10 00:33:00,
2013-01-09 18:43:00,64.0,62.0,-100.00,East,100,6.0,18.0,93,0.00,,,-99.99,1.000000,,2013-01-10 00:43:00,
2013-01-09 18:53:00,64.0,62.0,-100.00,East,100,6.0,18.0,93,0.00,,,-99.99,1.000000,,2013-01-10 00:53:00,
2013-01-09 19:02:00,64.0,62.0,-100.00,East,100,6.0,18.0,93,0.00,,,-99.99,1.000000,,2013-01-10 01:02:00,
2013-01-09 19:03:00,64.0,62.0,-100.00,SSE,147,4.0,11.0,94,0.00,,,0.99,0.000000,,2013-01-10 01:03:00,
2013-01-09 19:33:00,64.0,62.0,-100.00,SSE,147,4.0,11.0,94,0.00,,,0.99,0.000000,,2013-01-10 01:33:00,
2013-01-09 19:43:00,64.0,62.0,-100.00,SSE,147,4.0,11.0,94,0.00,,,0.99,0.000000,,2013-01-10 01:43:00,
2013-01-09 19:53:00,64.0,62.0,-100.00,SSE,147,4.0,11.0,94,0.00,,,0.99,0.000000,,2013-01-10 01:53:00,
2013-01-09 20:22:00,64.0,63.0,-100.00,East,84,9.0,15.0,95,0.00,,,0.99,0.000000,,2013-01-10 02:22:00,
2013-01-09 20:33:00,64.0,63.0,-100.00,East,84,9.0,15.0,95,0.00,,,0.99,0.000000,,2013-01-10 02:33:00,
2013-01-09 20:43:00,64.0,63.0,-100.00,East,84,9.0,15.0,95,0.00,,,0.99,0.000000,,2013-01-10 02:43:00,
2013-01-09 20:52:00,64.0,63.0,-100.00,East,84,9.0,15.0,95,0.00,,,0.99,0.000000,,2013-01-10 02:52:00,
2013-01-09 21:02:00,64.0,63.0,-100.00,East,84,9.0,15.0,95,0.00,,,0.99,0.000000,,2013-01-10 03:02:00,
2013-01-09 21:22:00,65.0,63.0,-100.00,ESE,108,8.0,15.0,93,0.00,,,0.99,0.000000,,2013-01-10 03:22:00,
2013-01-09 21:33:00,65.0,63.0,-100.00,ESE,108,8.0,15.0,93,0.00,,,0.99,0.000000,,2013-01-10 03:33:00,
2013-01-09 21:43:00,65.0,63.0,-100.00,ESE,108,8.0,15.0,93,0.00,,,0.99,0.000000,,2013-01-10 03:43:00,
2013-01-09 21:53:00,65.0,63.0,-100.00,ESE,108,8.0,15.0,93,0.00,,,0.99,0.000000,,2013-01-10 03:53:00,
2013-01-09 22:02:00,65.0,63.0,-100.00,ESE,108,8.0,15.0,93,0.00,,,0.99,0.000000,,2013-01-10 04:02:00,
2013-01-09 22:03:00,64.0,62.0,-100.00,ESE,111,5.0,14.0,93,0.00,,,0.98,0.000000,,2013-01-10 04:03:00,
2013-01-09 22:32:00,64.0,62.0,-100.00,ESE,111,5.0,14.0,93,0.00,,,0.98,0.000000,,2013-01-10 04:32:00,
2013-01-09 22:43:00,64.0,62.0,-100.00,ESE,111,5.0,14.0,93,0.00,,,0.98,0.000000,,2013-01-10 04:43:00,
2013-01-09 22:52:00,64.0,62.0,-100.00,ESE,111,5.0,14.0,93,0.00,,,0.98,0.000000,,2013-01-10 04:52:00,
2013-01-09 23:33:00,64.0,62.0,-100.00,ESE,112,4.0,7.0,94,0.00,,,0.98,0.000000,,2013-01-10 05:33:00,
2013-01-09 23:43:00,64.0,62.0,-100.00,ESE,112,4.0,7.0,94,0.00,,,0.98,0.000000,,2013-01-10 05:43:00,
2013-01-09 23:53:00,64.0,62.0,-100.00,ESE,112,4.0,7.0,94,0.00,,,0.98,0.000000,,2013-01-10 05:53:00,